Regional Weather Roundup
Issued by NWS New Orleans/Baton Rouge, LA

Home | Current Version | Previous Version | Text Only | Print | Product List | Glossary On
Versions: 1 2 3 4 5 6 7 8 9 10 11 12 13 14 15 16 17 18 19 20 21 22 23 24 25 26 27 28 29 30 31 32 33 34 35 36 37 38 39 40 41 42 43 44 45 46 47 48 49 50
000
ASUS44 KLIX 181810
RWRLIX
NEW ORLEANS REGIONAL WEATHER ROUNDUP
NATIONAL WEATHER SERVICE NEW ORLEANS LA
100 PM CDT THU SEP 18 2014

NOTE: "FAIR" INDICATES FEW OR NO CLOUDS BELOW 12,000 FEET WITH NO
      SIGNIFICANT WEATHER AND/OR OBSTRUCTIONS TO VISIBILITY.
      SKY/WX - SKY CONDITION AND SIGNIFICANT WEATHER.
      TMP - AIR TEMPERATURE.     DP    - DEWPOINT TEMPERATURE.
      RH  - RELATIVE HUMIDITY.   PRES  - PRESSURE.
      HI  - HEAT INDEX.          WCI   - WIND CHILL INDEX.

*  THESE STATIONS ARE NOT NWS OR FAA STATIONS AND ARE NOT UNDER
   NWS QUALITY CONTROL.

LAZ038-040-048-061>063-065>067-069-181900-
SOUTHEAST LOUISIANA

CITY           SKY/WX    TMP DP  RH WIND       PRES   REMARKS
N.O. AUDUBON   NOT AVBL
N.O. INTL ARPT CLOUDY    87  72  60 S7        29.91F
6HR MIN TEMP:  76; 6HR MAX TEMP:  88;

N.O. LAKEFRONT CLOUDY    86  72  62 VRB3      29.92F
6HR MIN TEMP:  80; 6HR MAX TEMP:  87;

N.O. DOWNTOWN*   N/A     88  70  55 SE9       29.92F
6HR MIN TEMP:  79; 6HR MAX TEMP:  88;

SLIDELL        CLOUDY    86  71  60 S5        29.92S
6HR MIN TEMP:  71; 6HR MAX TEMP:  87;

BATON ROUGE    CLOUDY    83  73  72 E6        29.93S
6HR MIN TEMP:  73; 6HR MAX TEMP:  83;

BOOTHVILLE     CLOUDY    85  72  65 E7        29.93F
6HR MIN TEMP:  79; 6HR MAX TEMP:  86;

BELLE CHASSE   CLOUDY    87  72  60 SE3       29.91F
6HR MIN TEMP:  72; 6HR MAX TEMP:  87;

BOGALUSA*        N/A     85  73  65 CALM      29.94F
6HR MIN TEMP:  72; 6HR MAX TEMP:  86;

GALLIANO*      NOT AVBL
NEW ROADS*       N/A     82  73  73 NE3       29.93F
6HR MIN TEMP:  72; 6HR MAX TEMP:  82;

GONZALES*      MOCLDY    85  77  77 CALM      29.91F
6HR MIN TEMP:  72; 6HR MAX TEMP:  85;

HAMMOND*       CLOUDY    86  72  62 CALM      29.94S
HOUMA*         MOSUNNY   86  57  37 E5        29.91F
PORT FOURCHON* CLEAR     82  75  78 E8G14     29.96F

$$

MSZ070-080>082-181900-
SOUTHERN MISSISSIPPI

CITY           SKY/WX    TMP DP  RH WIND       PRES   REMARKS
MCCOMB         CLOUDY    82  73  74 CALM      29.94F
6HR MIN TEMP:  72; 6HR MAX TEMP:  82;

GULFPORT       CLOUDY    86  72  62 SE8       29.92S
6HR MIN TEMP:  73; 6HR MAX TEMP:  88;

BILOXI         NOT AVBL
PASCAGOULA     PTSUNNY   88  71  57 S6        29.92F
6HR MIN TEMP:  70; 6HR MAX TEMP:  88;

STENNIS ARPT*  MOSUNNY   86  68  54 S8        29.92F

$$

COASTAL OBSERVATIONS
LAKE AND NEARSHORE STATIONS

STATION/POSITION TIME  TEMP    WIND        PRES    WAVE
                       AIR SEA DIR/SP/G            HT/PER
                 (UTC) (F)     (DEG/KT/KT) (MB)    (FT/S)
PASCAGOULA       1800   86     190/  6/  7 1013.1
WAVELAND YACHT   1800   83     150/  7/  8 1012.9
GRAND ISLE       1800   83 87  120/  5/  8 1013.9
SOUTHWEST PASS   1800   85 91  170/  4/  6 1013.9
NEW CANAL        1800   87 83   70/  1/  4 1013.5
SHELL BEACH      1800   85 81  110/  9/ 11 1013.0

OFFSHORE STATIONS

STATION/POSITION TIME  TEMP    WIND        PRES    WAVE
                       AIR SEA DIR/SP/G            HT/PER
                 (UTC) (F)     (DEG/KT/KT) (MB)    (FT/S)
64 S DAUPHIN ISL 1706   83 87  120/  6/  8 1014.1    1/ 6

$$



USA.gov is the U.S. government's official web portal to all federal, state and local government web resources and services.